Year,Month,Day,Hour,Minute,Value (Times are PST for temperature in C)
2013,12,18,00,00,7.20
2013,12,18,00,01,7.20
2013,12,18,00,02,7.20
2013,12,18,00,03,7.10
2013,12,18,00,04,7.10
2013,12,18,00,05,7.10
2013,12,18,00,06,7.10
2013,12,18,00,07,7.00
2013,12,18,00,08,6.90
2013,12,18,00,09,6.90
2013,12,18,00,10,6.80
2013,12,18,00,11,6.80
2013,12,18,00,12,6.70
2013,12,18,00,13,6.70
2013,12,18,00,14,6.60
2013,12,18,00,15,6.60
2013,12,18,00,16,6.60
2013,12,18,00,17,6.50
2013,12,18,00,18,6.50
2013,12,18,00,19,6.40
2013,12,18,00,20,6.30
2013,12,18,00,21,6.30
2013,12,18,00,22,6.30
2013,12,18,00,23,6.30
2013,12,18,00,24,6.30
2013,12,18,00,25,6.30
2013,12,18,00,26,6.30
2013,12,18,00,27,6.30
2013,12,18,00,28,6.40
2013,12,18,00,29,6.40
2013,12,18,00,30,6.40
2013,12,18,00,31,6.40
2013,12,18,00,32,6.40
2013,12,18,00,33,6.40
2013,12,18,00,34,6.50
2013,12,18,00,35,6.60
2013,12,18,00,36,6.60
2013,12,18,00,37,6.80
2013,12,18,00,38,6.90
2013,12,18,00,39,7.00
2013,12,18,00,40,7.10
2013,12,18,00,41,7.20
2013,12,18,00,42,7.20
2013,12,18,00,43,7.20
2013,12,18,00,44,7.20
2013,12,18,00,45,7.10
2013,12,18,00,46,7.00
2013,12,18,00,47,7.00
2013,12,18,00,48,6.90
2013,12,18,00,49,6.90
2013,12,18,00,50,6.90
2013,12,18,00,51,6.90
2013,12,18,00,52,7.00
2013,12,18,00,53,7.10
2013,12,18,00,54,7.20
2013,12,18,00,55,7.10
2013,12,18,00,56,7.10
2013,12,18,00,57,7.10
2013,12,18,00,58,7.10
2013,12,18,00,59,7.20
2013,12,18,01,00,7.20
2013,12,18,01,01,7.30
2013,12,18,01,02,7.30
2013,12,18,01,03,7.20
2013,12,18,01,04,7.20
2013,12,18,01,05,7.10
2013,12,18,01,06,7.00
2013,12,18,01,07,6.90
2013,12,18,01,08,6.80
2013,12,18,01,09,6.80
2013,12,18,01,10,6.70
2013,12,18,01,11,6.70
2013,12,18,01,12,6.60
2013,12,18,01,13,6.50
2013,12,18,01,14,6.40
2013,12,18,01,15,6.40
2013,12,18,01,16,6.30
2013,12,18,01,17,6.20
2013,12,18,01,18,6.10
2013,12,18,01,19,6.00
2013,12,18,01,20,5.90
2013,12,18,01,21,5.80
2013,12,18,01,22,5.80
2013,12,18,01,23,5.90
2013,12,18,01,24,5.90
2013,12,18,01,25,6.10
2013,12,18,01,26,6.30
2013,12,18,01,27,6.40
2013,12,18,01,28,6.60
2013,12,18,01,29,6.70
2013,12,18,01,30,6.80
2013,12,18,01,31,6.90
2013,12,18,01,32,6.90
2013,12,18,01,33,6.90
2013,12,18,01,34,7.00
2013,12,18,01,35,7.10
2013,12,18,01,36,7.20
2013,12,18,01,37,7.20
2013,12,18,01,38,7.20
2013,12,18,01,39,7.20
2013,12,18,01,40,7.20
2013,12,18,01,41,7.10
2013,12,18,01,42,7.10
2013,12,18,01,43,7.00
2013,12,18,01,44,7.00
2013,12,18,01,45,7.00
2013,12,18,01,46,7.10
2013,12,18,01,47,7.20
2013,12,18,01,48,7.20
2013,12,18,01,49,7.20
2013,12,18,01,50,7.20
2013,12,18,01,51,7.20
2013,12,18,01,52,7.20
2013,12,18,01,53,7.20
2013,12,18,01,54,7.20
2013,12,18,01,55,7.20
2013,12,18,01,56,7.20
2013,12,18,01,57,7.20
2013,12,18,01,58,7.20
2013,12,18,01,59,7.20
2013,12,18,02,00,7.20
2013,12,18,02,01,7.20
2013,12,18,02,02,7.20
2013,12,18,02,03,7.20
2013,12,18,02,04,7.20
2013,12,18,02,05,7.30
2013,12,18,02,06,7.30
2013,12,18,02,07,7.30
2013,12,18,02,08,7.30
2013,12,18,02,09,7.30
2013,12,18,02,10,7.30
2013,12,18,02,11,7.30
2013,12,18,02,12,7.30
2013,12,18,02,13,7.30
2013,12,18,02,14,7.30
2013,12,18,02,15,7.30
2013,12,18,02,16,7.30
2013,12,18,02,17,7.30
2013,12,18,02,18,7.30
2013,12,18,02,19,7.30
2013,12,18,02,20,7.20
2013,12,18,02,21,7.20
2013,12,18,02,22,7.20
2013,12,18,02,23,7.20
2013,12,18,02,24,7.20
2013,12,18,02,25,7.20
2013,12,18,02,26,7.20
2013,12,18,02,27,7.20
2013,12,18,02,28,7.20
2013,12,18,02,29,7.20
2013,12,18,02,30,7.20
2013,12,18,02,31,7.20
2013,12,18,02,32,7.20
2013,12,18,02,33,7.20
2013,12,18,02,34,7.20
2013,12,18,02,35,7.20
2013,12,18,02,36,7.20
2013,12,18,02,37,7.20
2013,12,18,02,38,7.10
2013,12,18,02,39,7.10
2013,12,18,02,40,7.10
2013,12,18,02,41,7.10
2013,12,18,02,42,7.10
2013,12,18,02,43,7.00
2013,12,18,02,44,7.00
2013,12,18,02,45,7.00
2013,12,18,02,46,7.00
2013,12,18,02,47,6.90
2013,12,18,02,48,6.90
2013,12,18,02,49,6.90
2013,12,18,02,50,6.80
2013,12,18,02,51,6.80
2013,12,18,02,52,6.80
2013,12,18,02,53,6.80
2013,12,18,02,54,6.70
2013,12,18,02,55,6.70
2013,12,18,02,56,6.70
2013,12,18,02,57,6.70
2013,12,18,02,58,6.60
2013,12,18,02,59,6.60
2013,12,18,03,00,6.60
2013,12,18,03,01,6.60
2013,12,18,03,02,6.50
2013,12,18,03,03,6.50
2013,12,18,03,04,6.50
2013,12,18,03,05,6.50
2013,12,18,03,06,6.50
2013,12,18,03,07,6.40
2013,12,18,03,08,6.40
2013,12,18,03,09,6.40
2013,12,18,03,10,6.40
2013,12,18,03,11,6.40
2013,12,18,03,12,6.50
2013,12,18,03,13,6.50
2013,12,18,03,14,6.50
2013,12,18,03,15,6.50
2013,12,18,03,16,6.60
2013,12,18,03,17,6.50
2013,12,18,03,18,6.50
2013,12,18,03,19,6.50
2013,12,18,03,20,6.50
2013,12,18,03,21,6.50
2013,12,18,03,22,6.50
2013,12,18,03,23,6.50
2013,12,18,03,24,6.50
2013,12,18,03,25,6.40
2013,12,18,03,26,6.40
2013,12,18,03,27,6.30
2013,12,18,03,28,6.30
2013,12,18,03,29,6.30
2013,12,18,03,30,6.20
2013,12,18,03,31,6.10
2013,12,18,03,32,6.10
2013,12,18,03,33,6.00
2013,12,18,03,34,5.90
2013,12,18,03,35,5.90
2013,12,18,03,36,5.80
2013,12,18,03,37,5.80
2013,12,18,03,38,5.70
2013,12,18,03,39,5.70
2013,12,18,03,40,5.70
2013,12,18,03,41,5.70
2013,12,18,03,42,5.70
2013,12,18,03,43,5.70
2013,12,18,03,44,5.60
2013,12,18,03,45,5.60
2013,12,18,03,46,5.60
2013,12,18,03,47,5.50
2013,12,18,03,48,5.50
2013,12,18,03,49,5.40
2013,12,18,03,50,5.40
2013,12,18,03,51,5.40
2013,12,18,03,52,5.40
2013,12,18,03,53,5.40
2013,12,18,03,54,5.50
2013,12,18,03,55,5.60
2013,12,18,03,56,5.70
2013,12,18,03,57,5.70
2013,12,18,03,58,5.80
2013,12,18,03,59,5.80
2013,12,18,04,00,5.80
2013,12,18,04,01,5.80
2013,12,18,04,02,5.80
2013,12,18,04,03,5.70
2013,12,18,04,04,5.70
2013,12,18,04,05,5.70
2013,12,18,04,06,5.60
2013,12,18,04,07,5.60
2013,12,18,04,08,5.60
2013,12,18,04,09,5.50
2013,12,18,04,10,5.50
2013,12,18,04,11,5.50
2013,12,18,04,12,5.60
2013,12,18,04,13,5.60
2013,12,18,04,14,5.60
2013,12,18,04,15,5.70
2013,12,18,04,16,5.80
2013,12,18,04,17,5.90
2013,12,18,04,18,5.90
2013,12,18,04,19,6.00
2013,12,18,04,20,6.00
2013,12,18,04,21,5.90
2013,12,18,04,22,6.00
2013,12,18,04,23,6.00
2013,12,18,04,24,5.90
2013,12,18,04,25,5.90
2013,12,18,04,26,5.90
2013,12,18,04,27,5.80
2013,12,18,04,28,5.80
2013,12,18,04,29,5.70
2013,12,18,04,30,5.60
2013,12,18,04,31,5.60
2013,12,18,04,32,5.50
2013,12,18,04,33,5.40
2013,12,18,04,34,5.30
2013,12,18,04,35,5.30
2013,12,18,04,36,5.20
2013,12,18,04,37,5.10
2013,12,18,04,38,5.10
2013,12,18,04,39,5.00
2013,12,18,04,40,4.90
2013,12,18,04,41,4.90
2013,12,18,04,42,4.90
2013,12,18,04,43,4.80
2013,12,18,04,44,4.80
2013,12,18,04,45,4.80
2013,12,18,04,46,4.70
2013,12,18,04,47,4.70
2013,12,18,04,48,4.70
2013,12,18,04,49,4.60
2013,12,18,04,50,4.60
2013,12,18,04,51,4.60
2013,12,18,04,52,4.50
2013,12,18,04,53,4.50
2013,12,18,04,54,4.50
2013,12,18,04,55,4.50
2013,12,18,04,56,4.40
2013,12,18,04,57,4.40
2013,12,18,04,58,4.40
2013,12,18,04,59,4.40
2013,12,18,05,00,4.30
2013,12,18,05,01,4.30
2013,12,18,05,02,4.30
2013,12,18,05,03,4.30
2013,12,18,05,04,4.30
2013,12,18,05,05,4.30
2013,12,18,05,06,4.30
2013,12,18,05,07,4.30
2013,12,18,05,08,4.30
2013,12,18,05,09,4.30
2013,12,18,05,10,4.20
2013,12,18,05,11,4.20
2013,12,18,05,12,4.20
2013,12,18,05,13,4.20
2013,12,18,05,14,4.20
2013,12,18,05,15,4.20
2013,12,18,05,16,4.20
2013,12,18,05,17,4.20
2013,12,18,05,18,4.20
2013,12,18,05,19,4.20
2013,12,18,05,20,4.20
2013,12,18,05,21,4.20
2013,12,18,05,22,4.20
2013,12,18,05,23,4.20
2013,12,18,05,24,4.20
2013,12,18,05,25,4.20
2013,12,18,05,26,4.20
2013,12,18,05,27,4.20
2013,12,18,05,28,4.20
2013,12,18,05,29,4.20
2013,12,18,05,30,4.20
2013,12,18,05,31,4.10
2013,12,18,05,32,4.10
2013,12,18,05,33,4.10
2013,12,18,05,34,4.10
2013,12,18,05,35,4.10
2013,12,18,05,36,4.10
2013,12,18,05,37,4.10
2013,12,18,05,38,4.10
2013,12,18,05,39,4.10
2013,12,18,05,40,4.10
2013,12,18,05,41,4.10
2013,12,18,05,42,4.10
2013,12,18,05,43,4.10
2013,12,18,05,44,4.10
2013,12,18,05,45,4.00
2013,12,18,05,46,4.00
2013,12,18,05,47,4.00
2013,12,18,05,48,3.90
2013,12,18,05,49,3.90
2013,12,18,05,50,3.90
2013,12,18,05,51,3.90
2013,12,18,05,52,3.80
2013,12,18,05,53,3.80
2013,12,18,05,54,3.80
2013,12,18,05,55,3.80
2013,12,18,05,56,3.80
2013,12,18,05,57,3.80
2013,12,18,05,58,3.70
2013,12,18,05,59,3.70
2013,12,18,06,00,3.70
2013,12,18,06,01,3.70
2013,12,18,06,02,3.70
2013,12,18,06,03,3.70
2013,12,18,06,04,3.70
2013,12,18,06,05,3.70
2013,12,18,06,06,3.70
2013,12,18,06,07,3.70
2013,12,18,06,08,3.70
2013,12,18,06,09,3.70
2013,12,18,06,10,3.70
2013,12,18,06,11,3.70
2013,12,18,06,12,3.70
2013,12,18,06,13,3.70
2013,12,18,06,14,3.70
2013,12,18,06,15,3.70
2013,12,18,06,16,3.70
2013,12,18,06,17,3.70
2013,12,18,06,18,3.70
2013,12,18,06,19,3.70
2013,12,18,06,20,3.70
2013,12,18,06,21,3.70
2013,12,18,06,22,3.70
2013,12,18,06,23,3.70
2013,12,18,06,24,3.70
2013,12,18,06,25,3.60
2013,12,18,06,26,3.60
2013,12,18,06,27,3.60
2013,12,18,06,28,3.60
2013,12,18,06,29,3.60
2013,12,18,06,30,3.60
2013,12,18,06,31,3.60
2013,12,18,06,32,3.60
2013,12,18,06,33,3.60
2013,12,18,06,34,3.60
2013,12,18,06,35,3.60
2013,12,18,06,36,3.60
2013,12,18,06,37,3.60
2013,12,18,06,38,3.60
2013,12,18,06,39,3.70
2013,12,18,06,40,3.70
2013,12,18,06,41,3.70
2013,12,18,06,42,3.70
2013,12,18,06,43,3.70
2013,12,18,06,44,3.70
2013,12,18,06,45,3.70
2013,12,18,06,46,3.70
2013,12,18,06,47,3.70
2013,12,18,06,48,3.70
2013,12,18,06,49,3.80
2013,12,18,06,50,3.90
2013,12,18,06,51,4.00
2013,12,18,06,52,4.10
2013,12,18,06,53,4.10
2013,12,18,06,54,4.10
2013,12,18,06,55,4.10
2013,12,18,06,56,4.10
2013,12,18,06,57,4.10
2013,12,18,06,58,4.00
2013,12,18,06,59,4.00
2013,12,18,07,00,3.90
2013,12,18,07,01,3.90
2013,12,18,07,02,3.90
2013,12,18,07,03,3.80
2013,12,18,07,04,3.80
2013,12,18,07,05,3.70
2013,12,18,07,06,3.70
2013,12,18,07,07,3.70
2013,12,18,07,08,3.60
2013,12,18,07,09,3.60
2013,12,18,07,10,3.50
2013,12,18,07,11,3.50
2013,12,18,07,12,3.40
2013,12,18,07,13,3.40
2013,12,18,07,14,3.40
2013,12,18,07,15,3.30
2013,12,18,07,16,3.30
2013,12,18,07,17,3.20
2013,12,18,07,18,3.20
2013,12,18,07,19,3.10
2013,12,18,07,20,3.10
2013,12,18,07,21,3.10
2013,12,18,07,22,3.00
2013,12,18,07,23,3.00
2013,12,18,07,24,2.90
2013,12,18,07,25,2.90
2013,12,18,07,26,2.90
2013,12,18,07,27,2.90
2013,12,18,07,28,2.80
2013,12,18,07,29,2.80
2013,12,18,07,30,2.80
2013,12,18,07,31,2.80
2013,12,18,07,32,2.80
2013,12,18,07,33,2.80
2013,12,18,07,34,2.70
2013,12,18,07,35,2.70
2013,12,18,07,36,2.60
2013,12,18,07,37,2.60
2013,12,18,07,38,2.60
2013,12,18,07,39,2.60
2013,12,18,07,40,2.60
2013,12,18,07,41,2.60
2013,12,18,07,42,2.60
2013,12,18,07,43,2.50
2013,12,18,07,44,2.50
2013,12,18,07,45,2.50
2013,12,18,07,46,2.40
2013,12,18,07,47,2.40
2013,12,18,07,48,2.40
2013,12,18,07,49,2.40
2013,12,18,07,50,2.40
2013,12,18,07,51,2.30
2013,12,18,07,52,2.30
2013,12,18,07,53,2.30
2013,12,18,07,54,2.30
2013,12,18,07,55,2.20
2013,12,18,07,56,2.20
2013,12,18,07,57,2.20
2013,12,18,07,58,2.20
2013,12,18,07,59,2.20
2013,12,18,08,00,2.20
2013,12,18,08,01,2.20
2013,12,18,08,02,2.20
2013,12,18,08,03,2.20
2013,12,18,08,04,2.10
2013,12,18,08,05,2.10
2013,12,18,08,06,2.10
2013,12,18,08,07,2.10
2013,12,18,08,08,2.10
2013,12,18,08,09,2.10
2013,12,18,08,10,2.10
2013,12,18,08,11,2.00
2013,12,18,08,12,2.00
2013,12,18,08,13,2.00
2013,12,18,08,14,2.00
2013,12,18,08,15,2.00
2013,12,18,08,16,1.90
2013,12,18,08,17,1.90
2013,12,18,08,18,1.90
2013,12,18,08,19,1.80
2013,12,18,08,20,1.80
2013,12,18,08,21,1.80
2013,12,18,08,22,1.80
2013,12,18,08,23,1.80
2013,12,18,08,24,1.70
2013,12,18,08,25,1.70
2013,12,18,08,26,1.70
2013,12,18,08,27,1.70
2013,12,18,08,28,1.60
2013,12,18,08,29,1.60
2013,12,18,08,30,1.60
2013,12,18,08,31,1.60
2013,12,18,08,32,1.60
2013,12,18,08,33,1.60
2013,12,18,08,34,1.60
2013,12,18,08,35,1.60
2013,12,18,08,36,1.60
2013,12,18,08,37,1.60
2013,12,18,08,38,1.60
2013,12,18,08,39,1.60
2013,12,18,08,40,1.60
2013,12,18,08,41,1.50
2013,12,18,08,42,1.50
2013,12,18,08,43,1.50
2013,12,18,08,44,1.50
2013,12,18,08,45,1.50
2013,12,18,08,46,1.40
2013,12,18,08,47,1.40
2013,12,18,08,48,1.40
2013,12,18,08,49,1.40
2013,12,18,08,50,1.40
2013,12,18,08,51,1.50
2013,12,18,08,52,1.50
2013,12,18,08,53,1.50
2013,12,18,08,54,1.60
2013,12,18,08,55,1.60
2013,12,18,08,56,1.60
2013,12,18,08,57,1.70
2013,12,18,08,58,1.70
2013,12,18,08,59,1.80
2013,12,18,09,00,1.80
2013,12,18,09,01,1.90
2013,12,18,09,02,1.90
2013,12,18,09,03,2.00
2013,12,18,09,04,2.00
2013,12,18,09,05,2.00
2013,12,18,09,06,2.10
2013,12,18,09,07,2.10
2013,12,18,09,08,2.10
2013,12,18,09,09,2.20
2013,12,18,09,10,2.20
2013,12,18,09,11,2.20
2013,12,18,09,12,2.30
2013,12,18,09,13,2.30
2013,12,18,09,14,2.30
2013,12,18,09,15,2.30
2013,12,18,09,16,2.30
2013,12,18,09,17,2.20
2013,12,18,09,18,2.20
2013,12,18,09,19,2.20
2013,12,18,09,20,2.20
2013,12,18,09,21,2.10
2013,12,18,09,22,2.10
2013,12,18,09,23,2.10
2013,12,18,09,24,2.10
2013,12,18,09,25,2.10
2013,12,18,09,26,2.10
2013,12,18,09,27,2.10
2013,12,18,09,28,2.10
2013,12,18,09,29,2.10
2013,12,18,09,30,2.10
2013,12,18,09,31,2.10
2013,12,18,09,32,2.10
2013,12,18,09,33,2.00
2013,12,18,09,34,2.00
2013,12,18,09,35,2.00
2013,12,18,09,36,2.00
2013,12,18,09,37,2.00
2013,12,18,09,38,2.00
2013,12,18,09,39,2.00
2013,12,18,09,40,2.00
2013,12,18,09,41,2.00
2013,12,18,09,42,2.00
2013,12,18,09,43,2.00
2013,12,18,09,44,2.00
2013,12,18,09,45,2.00
2013,12,18,09,46,2.00
2013,12,18,09,47,2.10
2013,12,18,09,48,2.10
2013,12,18,09,49,2.10
2013,12,18,09,50,2.10
2013,12,18,09,51,2.10
2013,12,18,09,52,2.20
2013,12,18,09,53,2.20
2013,12,18,09,54,2.20
2013,12,18,09,55,2.20
2013,12,18,09,56,2.30
2013,12,18,09,57,2.30
2013,12,18,09,58,2.30
2013,12,18,09,59,2.40
2013,12,18,10,00,2.40
2013,12,18,10,01,2.40
2013,12,18,10,02,2.40
2013,12,18,10,03,2.40
2013,12,18,10,04,2.40
2013,12,18,10,05,2.40
2013,12,18,10,06,2.40
2013,12,18,10,07,2.40
2013,12,18,10,08,2.50
2013,12,18,10,09,2.50
2013,12,18,10,10,2.50
2013,12,18,10,11,2.60
2013,12,18,10,12,2.60
2013,12,18,10,13,2.60
2013,12,18,10,14,2.60
2013,12,18,10,15,2.60
2013,12,18,10,16,2.70
2013,12,18,10,17,2.70
2013,12,18,10,18,2.80
2013,12,18,10,19,2.80
2013,12,18,10,20,2.90
2013,12,18,10,21,2.90
2013,12,18,10,22,2.90
2013,12,18,10,23,2.90
2013,12,18,10,24,2.90
2013,12,18,10,25,2.90
2013,12,18,10,26,3.00
2013,12,18,10,27,3.00
2013,12,18,10,28,3.10
2013,12,18,10,29,3.10
2013,12,18,10,30,3.30
2013,12,18,10,31,3.40
2013,12,18,10,32,3.50
2013,12,18,10,33,3.60
2013,12,18,10,34,3.70
2013,12,18,10,35,3.80
2013,12,18,10,36,3.90
2013,12,18,10,37,3.90
2013,12,18,10,38,4.00
2013,12,18,10,39,4.00
2013,12,18,10,40,4.10
2013,12,18,10,41,4.10
2013,12,18,10,42,4.10
2013,12,18,10,43,4.20
2013,12,18,10,44,4.20
2013,12,18,10,45,4.20
2013,12,18,10,46,4.30
2013,12,18,10,47,4.30
2013,12,18,10,48,4.30
2013,12,18,10,49,4.30
2013,12,18,10,50,4.30
2013,12,18,10,51,4.20
2013,12,18,10,52,4.20
2013,12,18,10,53,4.20
2013,12,18,10,54,4.20
2013,12,18,10,55,4.20
2013,12,18,10,56,4.10
2013,12,18,10,57,4.10
2013,12,18,10,58,4.10
2013,12,18,10,59,4.00
2013,12,18,11,00,4.00
2013,12,18,11,01,3.90
2013,12,18,11,02,3.90
2013,12,18,11,03,3.80
2013,12,18,11,04,3.80
2013,12,18,11,05,3.80
2013,12,18,11,06,3.80
2013,12,18,11,07,3.80
2013,12,18,11,08,3.80
2013,12,18,11,09,3.80
2013,12,18,11,10,3.80
2013,12,18,11,11,3.70
2013,12,18,11,12,3.70
2013,12,18,11,13,3.70
2013,12,18,11,14,3.70
2013,12,18,11,15,3.70
2013,12,18,11,16,3.70
2013,12,18,11,17,3.70
2013,12,18,11,18,3.70
2013,12,18,11,19,3.70
2013,12,18,11,20,3.70
2013,12,18,11,21,3.70
2013,12,18,11,22,3.70
2013,12,18,11,23,3.70
2013,12,18,11,24,3.70
2013,12,18,11,25,3.70
2013,12,18,11,26,3.80
2013,12,18,11,27,3.80
2013,12,18,11,28,3.80
2013,12,18,11,29,3.80
2013,12,18,11,30,3.90
2013,12,18,11,31,3.90
2013,12,18,11,32,4.00
2013,12,18,11,33,4.00
2013,12,18,11,34,4.10
2013,12,18,11,35,4.10
2013,12,18,11,36,4.10
2013,12,18,11,37,4.20
2013,12,18,11,38,4.20
2013,12,18,11,39,4.20
2013,12,18,11,40,4.30
2013,12,18,11,41,4.30
2013,12,18,11,42,4.40
2013,12,18,11,43,4.40
2013,12,18,11,44,4.40
2013,12,18,11,45,4.40
2013,12,18,11,46,4.40
2013,12,18,11,47,4.30
2013,12,18,11,48,4.40
2013,12,18,11,49,4.40
2013,12,18,11,50,4.40
2013,12,18,11,51,4.40
2013,12,18,11,52,4.40
2013,12,18,11,53,4.30
2013,12,18,11,54,4.30
2013,12,18,11,55,4.30
2013,12,18,11,56,4.30
2013,12,18,11,57,4.30
2013,12,18,11,58,4.30
2013,12,18,11,59,4.30
2013,12,18,12,00,4.30
2013,12,18,12,01,4.30
2013,12,18,12,02,4.30
2013,12,18,12,03,4.30
2013,12,18,12,04,4.30
2013,12,18,12,05,4.30
2013,12,18,12,06,4.30
2013,12,18,12,07,4.30
2013,12,18,12,08,4.30
2013,12,18,12,09,4.30
2013,12,18,12,10,4.40
2013,12,18,12,11,4.40
2013,12,18,12,12,4.40
2013,12,18,12,13,4.40
2013,12,18,12,14,4.40
2013,12,18,12,15,4.50
2013,12,18,12,16,4.50
2013,12,18,12,17,4.50
2013,12,18,12,18,4.60
2013,12,18,12,19,4.60
2013,12,18,12,20,4.70
2013,12,18,12,21,4.70
2013,12,18,12,22,4.80
2013,12,18,12,23,4.80
2013,12,18,12,24,4.90
2013,12,18,12,25,4.90
2013,12,18,12,26,4.90
2013,12,18,12,27,4.90
2013,12,18,12,28,4.90
2013,12,18,12,29,4.90
2013,12,18,12,30,5.00
2013,12,18,12,31,5.10
2013,12,18,12,32,5.10
2013,12,18,12,33,5.10
2013,12,18,12,34,5.10
2013,12,18,12,35,5.10
2013,12,18,12,36,5.10
2013,12,18,12,37,5.10
2013,12,18,12,38,5.10
2013,12,18,12,39,5.00
2013,12,18,12,40,5.00
2013,12,18,12,41,5.00
2013,12,18,12,42,5.00
2013,12,18,12,43,5.00
2013,12,18,12,44,5.00
2013,12,18,12,45,5.00
2013,12,18,12,46,5.00
2013,12,18,12,47,5.10
2013,12,18,12,48,5.10
2013,12,18,12,49,5.20
2013,12,18,12,50,5.20
2013,12,18,12,51,5.30
2013,12,18,12,52,5.30
2013,12,18,12,53,5.40
2013,12,18,12,54,5.40
2013,12,18,12,55,5.40
2013,12,18,12,56,5.40
2013,12,18,12,57,5.40
2013,12,18,12,58,5.40
2013,12,18,12,59,5.40
2013,12,18,13,00,5.50
2013,12,18,13,01,5.50
2013,12,18,13,02,5.50
2013,12,18,13,03,5.40
2013,12,18,13,04,5.40
2013,12,18,13,05,5.30
2013,12,18,13,06,5.30
2013,12,18,13,07,5.30
2013,12,18,13,08,5.20
2013,12,18,13,09,5.20
2013,12,18,13,10,5.10
2013,12,18,13,11,5.10
2013,12,18,13,12,5.00
2013,12,18,13,13,5.00
2013,12,18,13,14,4.90
2013,12,18,13,15,4.90
2013,12,18,13,16,4.90
2013,12,18,13,17,4.80
2013,12,18,13,18,4.80
2013,12,18,13,19,4.80
2013,12,18,13,20,4.80
2013,12,18,13,21,4.80
2013,12,18,13,22,4.80
2013,12,18,13,23,4.80
2013,12,18,13,24,4.70
2013,12,18,13,25,4.70
2013,12,18,13,26,4.70
2013,12,18,13,27,4.70
2013,12,18,13,28,4.70
2013,12,18,13,29,4.70
2013,12,18,13,30,4.60
2013,12,18,13,31,4.70
2013,12,18,13,32,4.60
2013,12,18,13,33,4.60
2013,12,18,13,34,4.60
2013,12,18,13,35,4.60
2013,12,18,13,36,4.60
2013,12,18,13,37,4.60
2013,12,18,13,38,4.60
2013,12,18,13,39,4.60
2013,12,18,13,40,4.60
2013,12,18,13,41,4.60
2013,12,18,13,42,4.60
2013,12,18,13,43,4.60
2013,12,18,13,44,4.60
2013,12,18,13,45,4.60
2013,12,18,13,46,4.60
2013,12,18,13,47,4.60
2013,12,18,13,48,4.60
2013,12,18,13,49,4.60
2013,12,18,13,50,4.60
2013,12,18,13,51,4.60
2013,12,18,13,52,4.60
2013,12,18,13,53,4.60
2013,12,18,13,54,4.50
2013,12,18,13,55,4.50
2013,12,18,13,56,4.50
2013,12,18,13,57,4.60
2013,12,18,13,58,4.60
2013,12,18,13,59,4.60
2013,12,18,14,00,4.60
2013,12,18,14,01,4.60
2013,12,18,14,02,4.60
2013,12,18,14,03,4.60
2013,12,18,14,04,4.60
2013,12,18,14,05,4.60
2013,12,18,14,06,4.60
2013,12,18,14,07,4.60
2013,12,18,14,08,4.70
2013,12,18,14,09,4.70
2013,12,18,14,10,4.70
2013,12,18,14,11,4.70
2013,12,18,14,12,4.70
2013,12,18,14,13,4.70
2013,12,18,14,14,4.80
2013,12,18,14,15,4.80
2013,12,18,14,16,4.80
2013,12,18,14,17,4.80
2013,12,18,14,18,4.90
2013,12,18,14,19,4.90
2013,12,18,14,20,4.90
2013,12,18,14,21,4.90
2013,12,18,14,22,5.00
2013,12,18,14,23,5.00
2013,12,18,14,24,5.00
2013,12,18,14,25,5.10
2013,12,18,14,26,5.10
2013,12,18,14,27,5.10
2013,12,18,14,28,5.10
2013,12,18,14,29,5.10
2013,12,18,14,30,5.00
2013,12,18,14,31,5.00
2013,12,18,14,32,5.00
2013,12,18,14,33,4.90
2013,12,18,14,34,4.90
2013,12,18,14,35,4.90
2013,12,18,14,36,4.90
2013,12,18,14,37,4.80
2013,12,18,14,38,4.80
2013,12,18,14,39,4.80
2013,12,18,14,40,4.80
2013,12,18,14,41,4.80
2013,12,18,14,42,4.80
2013,12,18,14,43,4.80
2013,12,18,14,44,4.80
2013,12,18,14,45,4.80
2013,12,18,14,46,4.80
2013,12,18,14,47,4.80
2013,12,18,14,48,4.80
2013,12,18,14,49,4.80
2013,12,18,14,50,4.80
2013,12,18,14,51,4.80
2013,12,18,14,52,4.80
2013,12,18,14,53,4.80
2013,12,18,14,54,4.70
2013,12,18,14,55,4.70
2013,12,18,14,56,4.70
2013,12,18,14,57,4.70
2013,12,18,14,58,4.70
2013,12,18,14,59,4.70
2013,12,18,15,00,4.70
2013,12,18,15,01,4.70
2013,12,18,15,02,4.70
2013,12,18,15,03,4.70
2013,12,18,15,04,4.60
2013,12,18,15,05,4.60
2013,12,18,15,06,4.60
2013,12,18,15,07,4.60
2013,12,18,15,08,4.60
2013,12,18,15,09,4.60
2013,12,18,15,10,4.60
2013,12,18,15,11,4.60
2013,12,18,15,12,4.60
2013,12,18,15,13,4.60
2013,12,18,15,14,4.50
2013,12,18,15,15,4.50
2013,12,18,15,16,4.50
2013,12,18,15,17,4.40
2013,12,18,15,18,4.40
2013,12,18,15,19,4.40
2013,12,18,15,20,4.40
2013,12,18,15,21,4.40
2013,12,18,15,22,4.30
2013,12,18,15,23,4.30
2013,12,18,15,24,4.30
2013,12,18,15,25,4.30
2013,12,18,15,26,4.30
2013,12,18,15,27,4.30
2013,12,18,15,28,4.20
2013,12,18,15,29,4.20
2013,12,18,15,30,4.20
2013,12,18,15,31,4.10
2013,12,18,15,32,4.10
2013,12,18,15,33,4.10
2013,12,18,15,34,4.00
2013,12,18,15,35,4.00
2013,12,18,15,36,3.90
2013,12,18,15,37,3.90
2013,12,18,15,38,3.80
2013,12,18,15,39,3.80
2013,12,18,15,40,3.80
2013,12,18,15,41,3.80
2013,12,18,15,42,3.80
2013,12,18,15,43,3.70
2013,12,18,15,44,3.70
2013,12,18,15,45,3.70
2013,12,18,15,46,3.70
2013,12,18,15,47,3.60
2013,12,18,15,48,3.60
2013,12,18,15,49,3.50
2013,12,18,15,50,3.50
2013,12,18,15,51,3.40
2013,12,18,15,52,3.40
2013,12,18,15,53,3.30
2013,12,18,15,54,3.30
2013,12,18,15,55,3.30
2013,12,18,15,56,3.30
2013,12,18,15,57,3.20
2013,12,18,15,58,3.20
2013,12,18,15,59,3.20
2013,12,18,16,00,3.20
2013,12,18,16,01,3.20
2013,12,18,16,02,3.10
2013,12,18,16,03,3.10
2013,12,18,16,04,3.10
2013,12,18,16,05,3.10
2013,12,18,16,06,3.00
2013,12,18,16,07,3.00
2013,12,18,16,08,2.90
2013,12,18,16,09,2.90
2013,12,18,16,10,2.90
2013,12,18,16,11,2.80
2013,12,18,16,12,2.80
2013,12,18,16,13,2.80
2013,12,18,16,14,2.80
2013,12,18,16,15,2.80
2013,12,18,16,16,2.70
2013,12,18,16,17,2.70
2013,12,18,16,18,2.70
2013,12,18,16,19,2.70
2013,12,18,16,20,2.70
2013,12,18,16,21,2.70
2013,12,18,16,22,2.60
2013,12,18,16,23,2.60
2013,12,18,16,24,2.60
2013,12,18,16,25,2.50
2013,12,18,16,26,2.50
2013,12,18,16,27,2.40
2013,12,18,16,28,2.40
2013,12,18,16,29,2.40
2013,12,18,16,30,2.40
2013,12,18,16,31,2.30
2013,12,18,16,32,2.30
2013,12,18,16,33,2.30
2013,12,18,16,34,2.30
2013,12,18,16,35,2.30
2013,12,18,16,36,2.20
2013,12,18,16,37,2.20
2013,12,18,16,38,2.20
2013,12,18,16,39,2.20
2013,12,18,16,40,2.20
2013,12,18,16,41,2.10
2013,12,18,16,42,2.10
2013,12,18,16,43,2.10
2013,12,18,16,44,2.10
2013,12,18,16,45,2.00
2013,12,18,16,46,2.00
2013,12,18,16,47,2.00
2013,12,18,16,48,1.90
2013,12,18,16,49,1.90
2013,12,18,16,50,1.90
2013,12,18,16,51,1.90
2013,12,18,16,52,1.80
2013,12,18,16,53,1.80
2013,12,18,16,54,1.80
2013,12,18,16,55,1.80
2013,12,18,16,56,1.80
2013,12,18,16,57,1.70
2013,12,18,16,58,1.70
2013,12,18,16,59,1.70
2013,12,18,17,00,1.70
2013,12,18,17,01,1.70
2013,12,18,17,02,1.70
2013,12,18,17,03,1.70
2013,12,18,17,04,1.70
2013,12,18,17,05,1.70
2013,12,18,17,06,1.70
2013,12,18,17,07,1.70
2013,12,18,17,08,1.60
2013,12,18,17,09,1.60
2013,12,18,17,10,1.60
2013,12,18,17,11,1.60
2013,12,18,17,12,1.60
2013,12,18,17,13,1.60
2013,12,18,17,14,1.60
2013,12,18,17,15,1.60
2013,12,18,17,16,1.60
2013,12,18,17,17,1.50
2013,12,18,17,18,1.50
2013,12,18,17,19,1.50
2013,12,18,17,20,1.60
2013,12,18,17,21,1.60
2013,12,18,17,22,1.60
2013,12,18,17,23,1.60
2013,12,18,17,24,1.60
2013,12,18,17,25,1.60
2013,12,18,17,26,1.60
2013,12,18,17,27,1.60
2013,12,18,17,28,1.60
2013,12,18,17,29,1.60
2013,12,18,17,30,1.60
2013,12,18,17,31,1.60
2013,12,18,17,32,1.60
2013,12,18,17,33,1.60
2013,12,18,17,34,1.60
2013,12,18,17,35,1.60
2013,12,18,17,36,1.60
2013,12,18,17,37,1.60
2013,12,18,17,38,1.60
2013,12,18,17,39,1.60
2013,12,18,17,40,1.60
2013,12,18,17,41,1.60
2013,12,18,17,42,1.60
2013,12,18,17,43,1.60
2013,12,18,17,44,1.50
2013,12,18,17,45,1.50
2013,12,18,17,46,1.50
2013,12,18,17,47,1.50
2013,12,18,17,48,1.50
2013,12,18,17,49,1.50
2013,12,18,17,50,1.50
2013,12,18,17,51,1.50
2013,12,18,17,52,1.50
2013,12,18,17,53,1.60
2013,12,18,17,54,1.60
2013,12,18,17,55,1.60
2013,12,18,17,56,1.60
2013,12,18,17,57,1.60
2013,12,18,17,58,1.60
2013,12,18,17,59,1.60
2013,12,18,18,00,1.60
2013,12,18,18,01,1.60
2013,12,18,18,02,1.60
2013,12,18,18,03,1.60
2013,12,18,18,04,1.60
2013,12,18,18,05,1.60
2013,12,18,18,06,1.60